Newburgh, NY

6:58 AM EDT on September 21, 2019 (GMT -0400)
Stewart International

Weather History for KSWF - August, 2019

Change the Weather History Date:

Sunday, August 25, 2019

  Actual Average Record
Temperature  
Mean Temperature 66 °F -  
Max Temperature 73 °F 77 °F 91 °F (2007)
Min Temperature 60 °F 58 °F 40 °F (1987)
Cooling Degree Days 2    
Growing Degree Days 16 (Base 50)    
Moisture  
Dew Point 57 °F    
Average Humidity 70    
Maximum Humidity 88    
Minimum Humidity 50    
Precipitation  
Precipitation 0.00 in - - ()
Sea Level Pressure  
Sea Level Pressure 30.28 in    
Wind  
Wind Speed 7 mph (ENE)    
Max Wind Speed 15 mph    
Max Gust Speed -    
Visibility 10 miles    
Events      
Averages and records for this station are not official NWS values.
T = Trace of Precipitation, MM = Missing Value Source: NWS Daily Summary

Daily Weather History Graph

Daily Weather History Graph

Search for Another Location

Airport or City:

Astronomy

Aug. 25, 2019 Rise Set
Actual Time 6:15 AM EDT 7:41 PM EDT
Civil Twilight 5:46 AM EDT 8:10 PM EDT
Nautical Twilight 5:11 AM EDT 8:44 PM EDT
Astronomical Twilight 4:34 AM EDT 9:21 PM EDT
Moon 12:46 AM EDT (8/25) 4:01 PM EDT (8/25)
Length of Visible Light 14h 23m
Length of Day
13h 25m
Waning Crescent, 29% of the Moon is Illuminated
Aug 25
Waning Crescent
Aug 30
New
Sep 5
First Quarter
Sep 14
Full
Sep 21
Last Quarter

Hourly Weather History & Observations

Time (EDT) Temp. Dew Point Humidity Pressure Visibility Wind Dir Wind Speed Gust Speed Precip Events Conditions
12:45 AM 62.6 °F 59.0 °F 88% 30.27 in 8.0 mi Variable 4.6 mph - N/A   Mostly Cloudy
1:45 AM 62.6 °F 59.0 °F 88% 30.27 in 8.0 mi Variable 4.6 mph - N/A   Mostly Cloudy
2:45 AM 62.6 °F 59.0 °F 88% 30.27 in 8.0 mi Variable 4.6 mph - N/A   Mostly Cloudy
3:45 AM 62.6 °F 59.0 °F 88% 30.28 in 8.0 mi Variable 4.6 mph - N/A   Mostly Cloudy
4:45 AM 62.6 °F 59.0 °F 88% 30.28 in 8.0 mi Variable 4.6 mph - N/A   Mostly Cloudy
5:45 AM 60.8 °F 57.2 °F 88% 30.29 in 8.0 mi Variable 4.6 mph - N/A   Mostly Cloudy
6:45 AM 60.8 °F 57.2 °F 88% 30.30 in 10.0 mi ENE 6.9 mph - N/A   Partly Cloudy
7:45 AM 62.6 °F 57.2 °F 82% 30.32 in 10.0 mi ENE 8.1 mph - N/A   Partly Cloudy
8:45 AM 66.2 °F 57.2 °F 73% 30.33 in 10.0 mi ENE 9.2 mph - N/A   Partly Cloudy
9:45 AM 69.8 °F 57.2 °F 64% 30.32 in 10.0 mi ENE 13.8 mph - N/A   Scattered Clouds
10:45 AM 69.8 °F 57.2 °F 64% 30.32 in 10.0 mi ENE 13.8 mph - N/A   Mostly Cloudy
11:45 AM 71.6 °F 57.2 °F 60% 30.31 in 10.0 mi ENE 11.5 mph - N/A   Mostly Cloudy
12:45 PM 73.4 °F 57.2 °F 57% 30.30 in 10.0 mi ENE 9.2 mph - N/A   Mostly Cloudy
1:45 PM 73.4 °F 55.4 °F 53% 30.31 in 10.0 mi East 9.2 mph - N/A   Scattered Clouds
2:45 PM 73.4 °F 57.2 °F 57% 30.27 in 10.0 mi ENE 8.1 mph - N/A   Scattered Clouds
3:45 PM 73.4 °F 55.4 °F 53% 30.25 in 10.0 mi ENE 13.8 mph - N/A   Scattered Clouds
4:45 PM 73.4 °F 55.4 °F 53% 30.24 in 10.0 mi ENE 15.0 mph - N/A   Scattered Clouds
5:45 PM 73.4 °F 55.4 °F 53% 30.23 in 10.0 mi East 10.4 mph - N/A   Scattered Clouds
6:45 PM 73.4 °F 53.6 °F 50% 30.24 in 10.0 mi East 11.5 mph - N/A   Scattered Clouds
7:45 PM 69.8 °F 55.4 °F 60% 30.25 in 10.0 mi East 8.1 mph - N/A   Partly Cloudy
8:45 PM 66.2 °F 55.4 °F 68% 30.26 in 10.0 mi East 6.9 mph - N/A   Partly Cloudy
9:45 PM 66.2 °F 55.4 °F 68% 30.26 in 10.0 mi East 6.9 mph - N/A   Clear
10:45 PM 62.6 °F 55.4 °F 77% 30.27 in 10.0 mi East 6.9 mph - N/A   Clear